Flag Weather past 2 weeks in Owensboro, Kentucky, U.S.A.

Now
28 °F

Clear.


Feels Like: N/A
Forecast: 27 / 43 °F
Wind: N/A

Location: Owensboro / Daviess

Current Time: Nov 26, 2014 at 3:20:05 AM

Latest Report: Nov 26, 2014 at 2:56 AM


Visibility: 9 mi

Pressure: 30.16 "Hg

Humidity: 89%

Dew point: 25 °F

Location of OwensboroLocation

Historic Weather in Owensboro — Graph

°F

Owensboro temperature yesterday

Maximum temperature yesterday: 42 °F (at 11:56 AM)
Minimum temperature yesterday: 29 °F (at 6:56 AM)
Average temperature yesterday: 36 °F

Past Weeks' High & Low Weather Summary

 TemperatureHumidityPressure
High65 °F (Nov 22, 2:56 PM)100% (Nov 16, 11:56 PM)30.52 "Hg (Nov 16, 11:56 PM)
Low10 °F (Nov 18, 4:56 AM)35% (Nov 15, 12:56 PM)29.27 "Hg (Nov 23, 7:56 PM)
Average36 °F70%30.15 "Hg
* Reported Nov 11 1:56 AM — Nov 26 1:56 AM, Owensboro, Weather by CustomWeather, © 2014

Note: Actual official high and low records may vary slightly from our data, if they occured in-between our weather recording intervals... More about our weather records

Advertising

Owensboro weather history for previous 24 hours

 ConditionsComfort  
Time TempWeatherWind HumidityBarometerVisibility
1:56 AM
Nov 26
29 °FClear.N/A89%30.17 "Hg10 mi
12:56 AM29 °FClear.N/A89%30.17 "Hg10 mi
11:56 PM
Nov 25
29 °FClear.N/A89%30.19 "Hg10 mi
10:56 PM30 °FClear.N/A89%30.20 "Hg10 mi
9:56 PM32 °FClear.6 mph82%30.22 "Hg10 mi
8:56 PM33 °FClear.5 mph82%30.22 "Hg10 mi
7:56 PM34 °FClear.5 mph79%30.22 "Hg10 mi
6:56 PM35 °FClear.9 mph76%30.21 "Hg10 mi
5:56 PM37 °FClear.6 mph73%30.19 "Hg10 mi
4:56 PM38 °FClear.8 mph71%30.18 "Hg10 mi
3:56 PM40 °FSunny.8 mph65%30.17 "Hg10 mi
2:56 PM41 °FPassing clouds.9 mph63%30.16 "Hg10 mi
1:56 PM42 °FScattered clouds.12 mph61%30.16 "Hg10 mi
12:56 PM42 °FPassing clouds.14 mph61%30.16 "Hg10 mi
11:56 AM42 °FSunny.8 mph58%30.18 "Hg10 mi
10:56 AM41 °FSunny.14 mph58%30.20 "Hg10 mi
9:56 AM40 °FSunny.14 mph63%30.20 "Hg10 mi
8:56 AM38 °FSunny.12 mph71%30.19 "Hg10 mi
7:56 AM33 °FSunny.6 mph89%30.14 "Hg10 mi
6:56 AM29 °FSunny.No wind92%30.14 "Hg10 mi
5:56 AM31 °FClear.No wind85%30.12 "Hg10 mi
4:56 AM33 °FClear.N/A82%30.10 "Hg10 mi
3:56 AM35 °FClear.N/A79%30.08 "Hg10 mi
Weather by CustomWeather, © 2014

See weather overviewHow to use our weather pages